Location: ECC Obs
(38.4314°N, 90.9815°W)
Time: 13:10:24
(UTC-05:00)

deb Explorer IX - Visible Passes

Search period start: 28 March 2020 00:00
Search period end: 07 April 2020 00:00
Orbit: 547 x 1101 km, 38.8° (Epoch: 27 March)

Date Brightness Start Highest point End Pass type
(mag) Time Alt. Az. Time Alt. Az. Time Alt. Az.
28 Mar ? 21:16:41 10° WSW 21:22:10 65° SSE 21:23:26 52° ESE visible
28 Mar ? 23:03:20 10° W 23:04:48 19° W 23:04:48 19° W visible
29 Mar ? 20:54:22 10° WSW 20:59:41 65° SSE 21:02:32 32° E visible
29 Mar ? 22:40:59 10° W 22:43:53 32° W 22:43:53 32° W visible
30 Mar ? 20:32:04 10° WSW 20:37:13 65° SSE 20:41:29 20° E visible
30 Mar ? 22:18:39 10° W 22:22:51 52° W 22:22:51 52° W visible
31 Mar ? 20:09:47 10° WSW 20:14:47 65° SSE 20:20:23 11° E visible
31 Mar ? 21:56:20 10° W 22:01:43 83° NW 22:01:43 83° NW visible
01 Apr ? 19:47:30 10° WSW 19:52:21 65° SSE 19:58:06 10° E visible
01 Apr ? 21:34:01 10° W 21:39:27 86° N 21:40:31 62° E visible
01 Apr ? 23:20:48 10° W 23:21:51 16° W 23:21:51 16° W visible
02 Apr ? 21:11:43 10° W 21:16:59 86° N 21:19:15 40° E visible
02 Apr ? 22:58:28 10° W 23:00:35 24° W 23:00:35 24° W visible
03 Apr ? 20:49:25 10° W 20:54:32 86° N 20:57:58 26° E visible
03 Apr ? 22:36:08 10° W 22:39:18 36° W 22:39:18 36° W visible
04 Apr ? 20:27:08 10° W 20:32:06 85° N 20:36:39 17° E visible
04 Apr ? 22:13:49 10° W 22:17:59 52° WSW 22:17:59 52° WSW visible
05 Apr ? 20:04:52 10° W 20:09:40 85° N 20:15:19 10° E visible
05 Apr ? 21:51:30 10° W 21:56:39 66° SSW 21:56:39 66° SSW visible
06 Apr ? 21:29:13 10° W 21:34:18 65° SSW 21:35:19 54° SSE visible
06 Apr ? 23:16:26 10° W 23:16:40 11° W 23:16:40 11° W visible
